Overview Statistics Trail Chart Weather Telemetry Raw packets
 

This is the latest recevied weather packets stored in our database for station/object YD2CLX-11. If no packets are shown the sender has not sent any weather packets the latest 10 day(s).

<< 50 51 52 53 54 55 56 >>
Time Temp. Humidity Pressure Rain* Wind** Luminosity Snow
1787824306 31.67° C 52% 998.3 hPa - - - -
1787823705 31.67° C 51% 998.2 hPa - - - -
1787823104 32.22° C 51% 998.1 hPa - - - -
1787822503 32.22° C 49% 998 hPa - - - -
1787821902 32.78° C 48% 997.9 hPa - - - -
1787821301 32.78° C 48% 997.9 hPa - - - -
1787820700 33.33° C 46% 997.8 hPa - - - -
1787820100 33.33° C 47% 997.8 hPa - - - -
1787819499 33.33° C 45% 997.8 hPa - - - -
1787818901 33.89° C 45% 997.7 hPa - - - -
1787818297 34.44° C 44% 997.7 hPa - - - -
1787817697 33.89° C 43% 997.6 hPa - - - -
1787817096 35° C 43% 997.7 hPa - - - -
1787816495 35° C 43% 997.8 hPa - - - -
1787815894 34.44° C 42% 997.8 hPa - - - -
1787815293 35° C 41% 997.8 hPa - - - -
1787814693 35.56° C 41% 997.9 hPa - - - -
1787814092 36.11° C 40% 997.9 hPa - - - -
1787813491 36.11° C 39% 998.1 hPa - - - -
1787812890 36.11° C 39% 998.1 hPa - - - -
1787812290 36.67° C 39% 998.1 hPa - - - -
1787811689 37.22° C 39% 998.2 hPa - - - -
1787811088 36.67° C 38% 998.4 hPa - - - -
1787810486 37.78° C 38% 998.5 hPa - - - -
1787809885 36.67° C 39% 998.7 hPa - - - -

* Rain since midnight (hover to see other rain measurements)
** Current wind speed in m/s (hover to see current wind gust speed)